User: anonymous   Login
Location: Unspecified
(0.0000°N, 0.0000°E)
Time: 11:48:23
(UTC+00:00)
Language:

WGS F2 (USA 204) - Orbit

View from above orbital plane
View from above orbital plane
View from above satellite
View from above satellite

Ground track
Ground track

The orbit data is extracted from the following two-line orbital elements,

1 34713U 09017A   16326.65377570 0.00000000  00000-0  00000-0 0    06
2 34713   0.0300 356.5930 0001458  67.2546 292.7932  1.00270000    06
Epoch (UTC): 21 November 2016 15:41:26
Eccentricity: 0.0001458
inclination: 0.0300°
perigee height: 35780 km
apogee height: 35793 km
right ascension of ascending node: 356.5930°
argument of perigee: 67.2546°
revolutions per day: 1.00270000
mean anomaly at epoch: 292.7932°
orbit number at epoch: 0

The dashed part of the orbit path shows where the satellite is in the earth's shadow,  

DLR